FW1468 Weather Reports


time (UTC)temp
F
wind
direction
speed
knots
gust
knots
rain 1hr
in
rain 24hr
in
rain mn
in
humidity
%
barometer
mb
20260510153102 67 140 0.0 7.0 0.00 0.25 0.00 74 1011.3
20260510151557 67 129 0.0 7.0 0.00 0.25 0.00 76 1011.4
20260510150119 66 168 0.9 4.3 0.00 0.25 0.00 79 1011.1
20260510144547 64 157 0.0 6.1 0.00 0.26 0.00 82 1011.1
20260510143043 63 162 1.7 6.1 0.00 0.26 0.00 83 1011.3
20260510141541 62 156 1.7 6.1 0.00 0.26 0.00 83 1011.2
20260510140037 61 149 3.5 7.0 0.00 0.26 0.00 85 1011.1
20260510134532 60 144 2.6 7.0 0.00 0.26 0.00 88 1011.0
20260510133027 59 149 1.7 3.5 0.00 0.26 0.00 91 1011.3
20260510131623 56 133 2.6 6.1 0.00 0.26 0.00 94 1011.3
20260510130022 56 166 0.0 2.6 0.00 0.26 0.00 98 1011.4
20260510124526 55 171 1.7 4.3 0.00 0.27 0.00 98 1011.4
20260510123013 53 149 0.0 1.7 0.00 0.27 0.00 99 1011.2
20260510121509 52 163 0.0 0.0 0.00 0.27 0.00 98 1011.2
20260510120018 51 163 0.0 0.0 0.00 0.27 0.00 98 1011.0
20260510114513 51 163 0.0 0.0 0.00 0.27 0.00 98 1011.0
20260510113001 51 163 0.0 0.0 0.00 0.27 0.00 98 1010.8
20260510111606 51 163 0.0 0.0 0.00 0.27 0.00 98 1010.8
20260510110059 50 163 0.0 0.0 0.00 0.27 0.00 98 1010.6
20260510104608 0 0.0 0.0 0.00 0.27 0.00 1010.5
20260510103104 0 0.0 0.0 0.00 0.27 0.00 1010.3
20260510101600 0 0.0 0.0 0.00 0.27 0.00 1010.4
20260510100056 0 0.0 0.0 0.00 0.27 0.00 1010.1
20260510094607 0 0.0 0.0 0.00 0.27 0.00 1010.0
20260510093100 0 0.0 0.0 0.00 0.27 0.00 1009.9
20260510091544 0 0.0 0.0 0.00 0.27 0.00 1009.7
20260510090038 0 0.0 0.0 0.00 0.27 0.00 1009.4
20260510084535 0 0.0 0.0 0.00 0.27 0.00 1009.7
20260510083048 49 153 0.0 1.7 0.00 0.27 0.00 98 1009.9
20260510081526 50 139 0.9 1.7 0.00 0.27 0.00 98 1010.0
20260510080027 50 156 0.0 1.7 0.00 0.27 0.00 98 1010.1
20260510074523 50 143 0.0 1.7 0.00 0.28 0.00 98 1010.2
20260510073023 50 159 0.0 0.9 0.00 0.28 0.00 98 1010.7
20260510071527 50 126 0.0 0.0 0.00 0.28 0.00 98 1010.6
20260510064517 50 170 0.0 0.0 0.00 0.28 0.00 98 1010.4
20260510063017 50 170 0.0 0.0 0.00 0.28 0.00 98 1010.2
20260510061547 50 142 0.0 0.0 0.00 0.28 0.00 98 1010.1
20260510060047 51 142 0.0 0.9 0.00 0.28 0.00 98 1010.1
20260510054543 50 140 0.0 0.9 0.00 0.28 0.00 98 1010.2
20260510053042 50 140 0.0 0.0 0.00 0.28 0.00 97 1010.2
20260510051540 50 140 0.0 0.0 0.00 0.28 0.00 97 1010.0
20260510050040 50 140 0.0 0.0 0.00 0.28 0.00 97 1009.8
20260510044541 50 140 0.0 0.0 0.00 0.28 0.00 97 1009.9
20260510043039 50 140 0.0 0.0 0.00 0.28 0.00 97 1009.9
20260510041540 50 140 0.0 0.0 0.00 0.28 0.00 97 1010.0
20260510040031 50 140 0.0 0.9 0.00 0.28 0.00 97 1009.7
20260510034529 50 140 0.0 0.0 0.00 0.28 0.28 97 1009.9
20260510033028 50 140 0.0 0.0 0.00 0.28 0.28 97 1009.7
20260510031517 50 141 0.0 0.0 0.00 0.28 0.28 97 1009.9
20260510030019 49 140 0.0 0.0 0.00 0.28 0.28 97 1010.1
20260510024516 49 140 0.0 0.0 0.00 0.28 0.28 97 1010.0
20260510023016 49 141 0.0 0.0 0.00 0.28 0.28 97 1009.8
20260510021516 50 140 0.0 0.0 0.00 0.28 0.28 96 1009.6
20260510020016 50 140 0.0 0.0 0.00 0.28 0.28 96 1009.7
20260510014516 50 163 0.0 0.0 0.00 0.28 0.28 96 1009.9
20260510013015 50 163 0.0 0.0 0.00 0.28 0.28 96 1009.8
20260510011517 50 163 0.0 0.0 0.00 0.28 0.28 95 1009.4
20260510010015 51 163 0.0 0.0 0.00 0.28 0.28 96 1009.6
20260510004514 50 163 0.0 0.0 0.00 0.28 0.28 95 1009.3
20260510003023 51 163 0.0 0.0 0.00 0.28 0.28 94 1009.0
20260510001554 52 163 0.0 0.0 0.00 0.28 0.28 94 1008.7
20260510000055 53 163 0.0 0.9 0.00 0.28 0.28 94 1008.6
20260509234651 54 168 0.0 2.6 0.00 0.28 0.28 93 1008.5
20260509233051 54 165 0.0 2.6 0.00 0.28 0.28 94 1008.6
20260509231550 55 161 0.0 0.9 0.00 0.28 0.28 94 1008.6
20260509230052 55 137 0.0 0.9 0.00 0.28 0.28 94 1008.6
20260509224550 55 140 0.0 2.6 0.00 0.28 0.28 95 1008.7
20260509223051 54 143 0.0 1.7 0.00 0.28 0.28 95 1008.5
20260509221547 54 138 0.0 3.5 0.00 0.28 0.28 95 1008.6
20260509220046 54 171 0.0 2.6 0.00 0.28 0.28 95 1008.7
20260509214543 54 142 0.9 3.5 0.01 0.28 0.28 96 1008.7
20260509213045 54 144 0.9 2.6 0.03 0.28 0.28 96 1008.8
20260509211541 54 164 0.0 1.7 0.05 0.28 0.28 96 1008.8
20260509210053 53 166 0.0 2.6 0.06 0.27 0.27 96 1008.9
20260509204540 53 168 0.0 0.9 0.08 0.27 0.27 95 1009.3
20260509203040 53 168 0.0 0.9 0.07 0.25 0.25 95 1009.6
20260509201532 53 187 0.0 1.7 0.06 0.22 0.22 95 1009.7
20260509200031 54 127 1.7 4.3 0.07 0.21 0.21 95 1009.8
20260509194531 54 106 0.0 3.5 0.06 0.19 0.19 95 1010.0
20260509193029 55 177 1.7 5.2 0.06 0.18 0.18 94 1010.2
20260509191528 55 150 0.0 2.6 0.05 0.16 0.16 94 1010.5
20260509190027 56 168 0.0 1.7 0.05 0.14 0.14 94 1010.5
20260509184523 56 167 0.0 0.0 0.05 0.13 0.13 94 1010.4
20260509183023 56 166 0.0 0.9 0.04 0.12 0.12 94 1010.2
20260509181522 56 104 0.0 0.9 0.04 0.11 0.11 94 1010.2
20260509180020 56 160 0.0 0.9 0.03 0.09 0.09 93 1010.1
20260509174517 55 160 0.0 1.7 0.02 0.08 0.08 93 1010.0
20260509173020 55 139 0.0 0.9 0.03 0.08 0.08 92 1009.9
20260509171514 55 154 0.0 1.7 0.02 0.07 0.07 92 1010.2
20260509170015 55 140 0.0 2.6 0.02 0.06 0.06 92 1010.2
20260509164510 55 138 0.0 0.0 0.03 0.07 0.06 92 1010.3
20260509163107 55 146 0.0 0.9 0.02 0.06 0.05 92 1010.5
20260509161505 54 146 0.0 0.0 0.02 0.06 0.05 93 1010.8
20260509160004 54 171 0.0 2.6 0.01 0.05 0.04 92 1011.1
20260509154502 54 144 0.0 0.9 0.00 0.04 0.03 91 1011.2